Weather in Mizhgirie

Ukraine / Zakarpattia District     48°31′42″N   23°30′05″E
temp.,
°C
wind,
m/s
gust,
m/s
humid.,
%
clouds,
%
prec.,
mm/h
press.,
hPa
HPBL,
m
19 april, mon
mon1900:00+3ene1193100 0.0 101811
03:00+3e1190100 0.1 101718
06:00+3ene119498 0.1 101620
09:00+4e1192100 0.4 1016448
12:00+6s0182100 0.4 1016604
15:00+7w1178100 1.2 1014649
18:00+6w1191100 1.5 1013216
21:00+5n119497 2.9 101456
20 april, tue
tue2000:00+4ne129564 0.1 101449
03:00+3ne1194100 0.1 101323
06:00+2ne119555 0.0 101317
09:00+5nne128459 0.0 1013355
12:00+9n026599 0.9 10121257
15:00+10w126363 3.2 10111188
18:00+8wnw127097 2.4 1011814
21:00+4nne1188100 3.9 101310
21 april, wed
wed2100:00+2e119276 0.1 101510
03:00+2se119742 0.1 101510
06:00+3s129599 0.0 101559
09:00+4s1292100 0.2 1016257
12:00+5ssw2388100 0.2 1016687
15:00+6ssw239282 0.4 1016495
18:00+7ssw247992 0.3 1015745
21:00+5s2498100 0.5 1016191
22 april, thu
thu2200:00+5sse249499 0.0 1016142
03:00+5sse2499100 1.3 1016221
06:00+5s2499100 0.3 1016291
09:00+5s3598100 0.5 1017487
12:00+7ssw3888100 0.2 10171017
15:00+8ssw41085100 0.9 10151183
18:00+8ssw3991100 1.2 10141033
21:00+7s389499 2.8 1015587
23 april, fri
fri2300:00+6s3996100 4.0 1014857
03:00+5ssw2599100 9.8 1014451
06:00+2nnw2496100 1.4 1016292
09:00+3n2383100 1.6 1018314
12:00+8wnw124998 0.0 10181459
15:00+9w4443100 0.0 10172018
18:00+7w346352 0.1 10181045
21:00+2nne229257 0.8 1021113